User: anonymous   Login
Location: Edinburgh
(55.9500°N, 3.1600°W)
Time: 20:50:35
(UTC+00:00)
Language:

UKube-1 - Orbit

View from above orbital plane
View from above orbital plane
View from above satellite
View from above satellite

Ground track
Ground track

The orbit data is extracted from the following two-line orbital elements,

1 40074U 14037F   18020.46387607  .00000222  00000-0  33951-4 0  9993
2 40074  98.3672 150.4704 0006024  76.7235 283.4657 14.83701784191396
Epoch (UTC): 20 January 2018 11:07:58
Eccentricity: 0.0006024
inclination: 98.3672°
perigee height: 613 km
apogee height: 622 km
right ascension of ascending node: 150.4704°
argument of perigee: 76.7235°
revolutions per day: 14.83701784
mean anomaly at epoch: 283.4657°
orbit number at epoch: 19139

The dashed part of the orbit path shows where the satellite is in the earth's shadow,  

DLR